Time,TemperatureF,DewpointF,PressureIn,WindDirection,WindDirectionDegrees,WindSpeedMPH,WindSpeedGustMPH,Humidity,HourlyPrecipIn,Conditions,Clouds,dailyrainin,SoftwareType,DateUTC
2013-02-23 00:00:00,69.1,66.7,29.97,NE,44,0.0,0.0,92,0.00,,,0.00,VWS V14.01,2013-02-23 05:00:00,
2013-02-23 00:03:00,69.0,66.6,29.97,NE,44,0.0,0.0,92,0.00,,,0.00,VWS V14.01,2013-02-23 05:03:00,
2013-02-23 00:08:00,68.9,66.5,29.97,NE,44,0.0,0.0,92,0.00,,,0.00,VWS V14.01,2013-02-23 05:08:00,
2013-02-23 00:13:00,68.9,66.5,29.97,NE,44,0.0,0.0,92,0.00,,,0.00,VWS V14.01,2013-02-23 05:13:00,
2013-02-23 00:18:00,68.8,66.7,29.97,NE,43,0.0,0.0,93,0.00,,,0.00,VWS V14.01,2013-02-23 05:18:00,
2013-02-23 00:23:00,68.8,66.7,29.97,NE,44,0.0,0.0,93,0.00,,,0.00,VWS V14.01,2013-02-23 05:23:00,
2013-02-23 00:28:00,68.7,66.6,29.97,NE,45,0.0,0.0,93,0.00,,,0.00,VWS V14.01,2013-02-23 05:28:00,
2013-02-23 00:33:00,68.6,66.5,29.96,NE,44,0.0,0.0,93,0.00,,,0.00,VWS V14.01,2013-02-23 05:33:00,
2013-02-23 00:38:00,68.5,66.4,29.96,NE,44,0.0,0.0,93,0.00,,,0.00,VWS V14.01,2013-02-23 05:38:00,
2013-02-23 00:43:00,68.5,66.4,29.95,NE,44,0.0,0.0,93,0.00,,,0.00,VWS V14.01,2013-02-23 05:43:00,
2013-02-23 00:48:00,68.5,66.4,29.96,NE,43,0.0,0.0,93,0.00,,,0.00,VWS V14.01,2013-02-23 05:48:00,
2013-02-23 00:54:00,68.5,66.7,29.96,SW,219,0.0,1.0,94,0.00,,,0.00,VWS V14.01,2013-02-23 05:54:00,
2013-02-23 01:00:00,68.6,66.8,29.96,SW,219,0.0,2.0,94,0.00,,,0.00,VWS V14.01,2013-02-23 06:00:00,
2013-02-23 01:06:00,68.6,66.8,29.96,SW,220,0.0,1.0,94,0.00,,,0.00,VWS V14.01,2013-02-23 06:06:00,
2013-02-23 01:12:00,68.6,66.8,29.96,SW,215,1.0,4.0,94,0.00,,,0.00,VWS V14.01,2013-02-23 06:12:00,
2013-02-23 01:18:00,68.6,66.8,29.96,SW,214,0.0,3.0,94,0.00,,,0.00,VWS V14.01,2013-02-23 06:18:00,
2013-02-23 01:23:00,68.6,66.8,29.95,SW,214,3.0,3.0,94,0.00,,,0.00,VWS V14.01,2013-02-23 06:23:00,
2013-02-23 01:30:00,68.4,66.6,29.95,SW,214,0.0,1.0,94,0.00,,,0.00,VWS V14.01,2013-02-23 06:30:00,
2013-02-23 01:36:00,68.4,66.9,29.95,SW,214,0.0,4.0,95,0.00,,,0.00,VWS V14.01,2013-02-23 06:36:00,
2013-02-23 01:42:00,68.3,66.8,29.95,SW,216,0.0,3.0,95,0.00,,,0.00,VWS V14.01,2013-02-23 06:42:00,
2013-02-23 01:52:00,68.2,66.7,29.95,SW,216,0.0,1.0,95,0.00,,,0.00,VWS V14.01,2013-02-23 06:52:00,
2013-02-23 01:58:00,68.1,66.6,29.95,SW,216,0.0,4.0,95,0.00,,,0.00,VWS V14.01,2013-02-23 06:58:00,
2013-02-23 02:03:00,68.1,66.6,29.95,SW,216,0.0,4.0,95,0.00,,,0.00,VWS V14.01,2013-02-23 07:03:00,
2013-02-23 02:08:00,68.0,66.5,29.95,SW,215,0.0,1.0,95,0.00,,,0.00,VWS V14.01,2013-02-23 07:08:00,
2013-02-23 02:13:00,68.0,66.5,29.94,SW,216,0.0,1.0,95,0.00,,,0.00,VWS V14.01,2013-02-23 07:13:00,
2013-02-23 02:18:00,68.0,66.5,29.94,SW,216,1.0,3.0,95,0.00,,,0.00,VWS V14.01,2013-02-23 07:18:00,
2013-02-23 02:23:00,67.9,66.4,29.94,SW,216,0.0,1.0,95,0.00,,,0.00,VWS V14.01,2013-02-23 07:23:00,
2013-02-23 02:28:00,67.9,66.4,29.94,SW,216,0.0,1.0,95,0.00,,,0.00,VWS V14.01,2013-02-23 07:28:00,
2013-02-23 02:34:00,67.8,66.3,29.93,SW,216,0.0,0.0,95,0.00,,,0.00,VWS V14.01,2013-02-23 07:34:00,
2013-02-23 02:40:00,67.6,66.1,29.93,SW,216,0.0,1.0,95,0.00,,,0.00,VWS V14.01,2013-02-23 07:40:00,
2013-02-23 02:46:00,67.4,65.9,29.93,SW,216,0.0,1.0,95,0.00,,,0.00,VWS V14.01,2013-02-23 07:46:00,
2013-02-23 02:52:00,67.2,65.7,29.94,SW,215,0.0,2.0,95,0.00,,,0.00,VWS V14.01,2013-02-23 07:52:00,
2013-02-23 02:58:00,67.0,65.5,29.93,SW,216,0.0,1.0,95,0.00,,,0.00,VWS V14.01,2013-02-23 07:58:00,
2013-02-23 03:03:00,66.9,65.4,29.94,SW,216,0.0,1.0,95,0.00,,,0.00,VWS V14.01,2013-02-23 08:03:00,
2013-02-23 03:08:00,66.8,65.3,29.93,SW,216,0.0,1.0,95,0.00,,,0.00,VWS V14.01,2013-02-23 08:08:00,
2013-02-23 03:13:00,66.7,65.2,29.93,SW,216,0.0,0.0,95,0.00,,,0.00,VWS V14.01,2013-02-23 08:13:00,
2013-02-23 03:18:00,66.5,65.0,29.93,SW,216,0.0,0.0,95,0.00,,,0.00,VWS V14.01,2013-02-23 08:18:00,
2013-02-23 03:25:00,66.4,65.2,29.93,SW,216,0.0,0.0,96,0.00,,,0.00,VWS V14.01,2013-02-23 08:25:00,
2013-02-23 03:31:00,66.4,65.2,29.92,SW,216,0.0,0.0,96,0.00,,,0.00,VWS V14.01,2013-02-23 08:31:00,
2013-02-23 03:37:00,66.3,65.1,29.92,SW,215,0.0,0.0,96,0.00,,,0.00,VWS V14.01,2013-02-23 08:37:00,
2013-02-23 03:43:00,66.3,65.1,29.92,SW,216,0.0,0.0,96,0.00,,,0.00,VWS V14.01,2013-02-23 08:43:00,
2013-02-23 03:48:00,66.2,65.0,29.92,SW,215,0.0,0.0,96,0.00,,,0.00,VWS V14.01,2013-02-23 08:48:00,
2013-02-23 03:55:00,66.3,65.1,29.92,SW,215,0.0,0.0,96,0.00,,,0.00,VWS V14.01,2013-02-23 08:55:00,
2013-02-23 04:01:00,66.3,65.1,29.92,SW,215,0.0,0.0,96,0.00,,,0.00,VWS V14.01,2013-02-23 09:01:00,
2013-02-23 04:07:00,66.5,65.3,29.92,SW,216,0.0,1.0,96,0.00,,,0.00,VWS V14.01,2013-02-23 09:07:00,
2013-02-23 04:13:00,66.5,65.3,29.92,SW,216,0.0,1.0,96,0.00,,,0.00,VWS V14.01,2013-02-23 09:13:00,
2013-02-23 04:19:00,66.5,65.3,29.92,SW,216,0.0,0.0,96,0.00,,,0.00,VWS V14.01,2013-02-23 09:19:00,
2013-02-23 04:25:00,66.5,65.3,29.92,SW,215,0.0,0.0,96,0.00,,,0.00,VWS V14.01,2013-02-23 09:25:00,
2013-02-23 04:32:00,66.5,65.3,29.92,SW,216,0.0,0.0,96,0.00,,,0.00,VWS V14.01,2013-02-23 09:32:00,
2013-02-23 04:38:00,66.5,65.3,29.91,SW,215,0.0,0.0,96,0.00,,,0.00,VWS V14.01,2013-02-23 09:38:00,
2013-02-23 04:43:00,66.5,65.3,29.91,SW,215,0.0,1.0,96,0.00,,,0.00,VWS V14.01,2013-02-23 09:43:00,
2013-02-23 04:48:00,66.5,65.3,29.91,SW,216,0.0,1.0,96,0.00,,,0.00,VWS V14.01,2013-02-23 09:48:00,
2013-02-23 04:56:00,66.6,65.7,29.91,SW,215,0.0,2.0,97,0.00,,,0.00,VWS V14.01,2013-02-23 09:56:00,
2013-02-23 05:02:00,66.7,65.5,29.92,SW,216,1.0,2.0,96,0.00,,,0.00,VWS V14.01,2013-02-23 10:02:00,
2013-02-23 05:08:00,66.9,66.0,29.92,SW,215,0.0,3.0,97,0.00,,,0.00,VWS V14.01,2013-02-23 10:08:00,
2013-02-23 05:13:00,67.0,66.1,29.92,SSW,212,0.0,5.0,97,0.00,,,0.00,VWS V14.01,2013-02-23 10:13:00,
2013-02-23 05:18:00,67.1,66.2,29.92,SW,214,0.0,6.0,97,0.00,,,0.00,VWS V14.01,2013-02-23 10:18:00,
2013-02-23 05:23:00,67.2,66.0,29.92,SW,222,1.0,5.0,96,0.00,,,0.00,VWS V14.01,2013-02-23 10:23:00,
2013-02-23 05:28:00,67.2,66.0,29.92,SSW,211,0.0,4.0,96,0.00,,,0.00,VWS V14.01,2013-02-23 10:28:00,
2013-02-23 05:33:00,67.2,66.0,29.92,SSW,212,3.0,4.0,96,0.00,,,0.00,VWS V14.01,2013-02-23 10:33:00,
2013-02-23 05:38:00,67.2,66.0,29.92,SW,215,0.0,10.0,96,0.00,,,0.00,VWS V14.01,2013-02-23 10:38:00,
2013-02-23 05:43:00,67.3,66.1,29.92,SSW,199,2.0,4.0,96,0.00,,,0.00,VWS V14.01,2013-02-23 10:43:00,
2013-02-23 05:48:00,67.4,66.2,29.92,SW,223,0.0,4.0,96,0.00,,,0.00,VWS V14.01,2013-02-23 10:48:00,
2013-02-23 05:53:00,67.3,65.8,29.92,SSW,207,1.0,4.0,95,0.00,,,0.00,VWS V14.01,2013-02-23 10:53:00,
2013-02-23 05:58:00,67.3,65.8,29.92,SSW,212,2.0,7.0,95,0.00,,,0.00,VWS V14.01,2013-02-23 10:58:00,
2013-02-23 06:05:00,67.3,65.8,29.92,SSW,197,0.0,3.0,95,0.00,,,0.00,VWS V14.01,2013-02-23 11:05:00,
2013-02-23 06:11:00,67.2,65.7,29.92,SSW,201,2.0,3.0,95,0.00,,,0.00,VWS V14.01,2013-02-23 11:11:00,
2013-02-23 06:17:00,67.2,65.7,29.92,SSW,202,3.0,4.0,95,0.00,,,0.00,VWS V14.01,2013-02-23 11:17:00,
2013-02-23 06:23:00,67.1,65.6,29.93,SW,214,0.0,5.0,95,0.00,,,0.00,VWS V14.01,2013-02-23 11:23:00,
2013-02-23 06:28:00,67.0,65.5,29.93,SW,216,1.0,4.0,95,0.00,,,0.00,VWS V14.01,2013-02-23 11:28:00,
2013-02-23 06:33:00,67.0,65.5,29.93,SW,218,4.0,4.0,95,0.00,,,0.00,VWS V14.01,2013-02-23 11:33:00,
2013-02-23 06:38:00,67.0,65.5,29.93,SSW,206,3.0,4.0,95,0.00,,,0.00,VWS V14.01,2013-02-23 11:38:00,
2013-02-23 06:43:00,66.9,65.4,29.93,SSW,212,2.0,4.0,95,0.00,,,0.00,VWS V14.01,2013-02-23 11:43:00,
2013-02-23 06:48:00,66.8,65.3,29.93,SSW,212,3.0,3.0,95,0.00,,,0.00,VWS V14.01,2013-02-23 11:48:00,
2013-02-23 06:53:00,66.8,65.3,29.94,SSW,212,0.0,3.0,95,0.00,,,0.00,VWS V14.01,2013-02-23 11:53:00,
2013-02-23 06:58:00,66.8,65.3,29.94,SSW,212,0.0,4.0,95,0.00,,,0.00,VWS V14.01,2013-02-23 11:58:00,
2013-02-23 07:03:00,66.8,65.3,29.94,SSW,212,0.0,3.0,95,0.00,,,0.00,VWS V14.01,2013-02-23 12:03:00,
2013-02-23 07:08:00,66.8,65.3,29.94,SSW,212,0.0,4.0,95,0.00,,,0.00,VWS V14.01,2013-02-23 12:08:00,
2013-02-23 07:13:00,66.8,65.3,29.94,SSW,212,0.0,3.0,95,0.00,,,0.00,VWS V14.01,2013-02-23 12:13:00,
2013-02-23 07:18:00,66.9,65.4,29.94,SSW,212,0.0,3.0,95,0.00,,,0.00,VWS V14.01,2013-02-23 12:18:00,
2013-02-23 07:23:00,66.9,65.4,29.94,SSW,212,2.0,4.0,95,0.00,,,0.00,VWS V14.01,2013-02-23 12:23:00,
2013-02-23 07:28:00,66.9,65.4,29.94,SSW,197,0.0,4.0,95,0.00,,,0.00,VWS V14.01,2013-02-23 12:28:00,
2013-02-23 07:33:00,66.9,65.4,29.94,SW,214,0.0,3.0,95,0.00,,,0.00,VWS V14.01,2013-02-23 12:33:00,
2013-02-23 07:38:00,67.0,65.5,29.94,SSW,208,3.0,5.0,95,0.00,,,0.00,VWS V14.01,2013-02-23 12:38:00,
2013-02-23 07:43:00,67.0,65.5,29.95,SSW,207,2.0,5.0,95,0.00,,,0.00,VWS V14.01,2013-02-23 12:43:00,
2013-02-23 07:48:00,67.0,65.5,29.95,SSW,205,3.0,4.0,95,0.00,,,0.00,VWS V14.01,2013-02-23 12:48:00,
2013-02-23 07:53:00,67.0,65.5,29.95,SSW,205,0.0,3.0,95,0.00,,,0.00,VWS V14.01,2013-02-23 12:53:00,
2013-02-23 07:58:00,67.1,65.6,29.96,SSW,204,0.0,3.0,95,0.00,,,0.00,VWS V14.01,2013-02-23 12:58:00,
2013-02-23 08:05:00,67.3,65.8,29.96,SSW,204,2.0,4.0,95,0.00,,,0.00,VWS V14.01,2013-02-23 13:05:00,
2013-02-23 08:11:00,67.4,65.9,29.95,SSW,212,0.0,3.0,95,0.00,,,0.00,VWS V14.01,2013-02-23 13:11:00,
2013-02-23 08:17:00,67.7,66.2,29.95,SSW,201,4.0,6.0,95,0.00,,,0.00,VWS V14.01,2013-02-23 13:17:00,
2013-02-23 08:23:00,68.1,66.6,29.95,SSW,197,4.0,6.0,95,0.00,,,0.00,VWS V14.01,2013-02-23 13:23:00,
2013-02-23 08:28:00,68.4,66.9,29.95,SW,221,1.0,5.0,95,0.00,,,0.00,VWS V14.01,2013-02-23 13:28:00,
2013-02-23 08:33:00,68.7,66.9,29.95,SSW,210,4.0,7.0,94,0.00,,,0.00,VWS V14.01,2013-02-23 13:33:00,
2013-02-23 08:38:00,69.0,67.2,29.95,SSW,195,5.0,8.0,94,0.00,,,0.00,VWS V14.01,2013-02-23 13:38:00,
2013-02-23 08:43:00,69.4,67.3,29.94,SSW,196,3.0,10.0,93,0.00,,,0.00,VWS V14.01,2013-02-23 13:43:00,
2013-02-23 08:48:00,69.8,67.4,29.95,SW,227,4.0,11.0,92,0.00,,,0.00,VWS V14.01,2013-02-23 13:48:00,
2013-02-23 08:53:00,70.2,67.8,29.94,SSW,199,4.0,11.0,92,0.00,,,0.00,VWS V14.01,2013-02-23 13:53:00,
2013-02-23 08:58:00,70.4,67.7,29.94,SW,230,8.0,12.0,91,0.00,,,0.00,VWS V14.01,2013-02-23 13:58:00,
2013-02-23 09:06:00,70.6,67.5,29.94,SSW,212,5.0,6.0,90,0.00,,,0.00,VWS V14.01,2013-02-23 14:06:00,
2013-02-23 09:12:00,70.7,67.6,29.95,SW,221,3.0,8.0,90,0.00,,,0.00,VWS V14.01,2013-02-23 14:12:00,
2013-02-23 09:18:00,70.8,67.4,29.94,SW,221,2.0,9.0,89,0.00,,,0.00,VWS V14.01,2013-02-23 14:18:00,
2013-02-23 09:23:00,71.1,67.7,29.94,SW,215,3.0,9.0,89,0.00,,,0.00,VWS V14.01,2013-02-23 14:23:00,
2013-02-23 09:28:00,71.3,67.6,29.94,WSW,237,4.0,10.0,88,0.00,,,0.00,VWS V14.01,2013-02-23 14:28:00,
2013-02-23 09:33:00,71.3,67.6,29.94,SSW,210,3.0,9.0,88,0.00,,,0.00,VWS V14.01,2013-02-23 14:33:00,
2013-02-23 09:38:00,71.4,67.3,29.94,SSW,193,3.0,10.0,87,0.00,,,0.00,VWS V14.01,2013-02-23 14:38:00,
2013-02-23 09:43:00,71.5,67.1,29.94,SW,214,9.0,14.0,86,0.00,,,0.00,VWS V14.01,2013-02-23 14:43:00,
2013-02-23 09:48:00,71.5,67.1,29.94,SSW,199,5.0,12.0,86,0.00,,,0.00,VWS V14.01,2013-02-23 14:48:00,
2013-02-23 09:53:00,71.5,66.8,29.93,SW,218,4.0,18.0,85,0.00,,,0.00,VWS V14.01,2013-02-23 14:53:00,
2013-02-23 09:58:00,71.9,67.2,29.93,SW,228,10.0,14.0,85,0.00,,,0.00,VWS V14.01,2013-02-23 14:58:00,
2013-02-23 10:06:00,72.7,66.9,29.93,SW,220,8.0,15.0,82,0.00,,,0.00,VWS V14.01,2013-02-23 15:06:00,
2013-02-23 10:12:00,73.3,67.1,29.93,SW,218,7.0,14.0,81,0.00,,,0.00,VWS V14.01,2013-02-23 15:12:00,
2013-02-23 10:18:00,73.3,67.1,29.93,SW,228,5.0,16.0,81,0.00,,,0.00,VWS V14.01,2013-02-23 15:18:00,
2013-02-23 10:23:00,73.3,67.1,29.93,SSW,195,6.0,12.0,81,0.00,,,0.00,VWS V14.01,2013-02-23 15:23:00,
2013-02-23 10:28:00,73.1,66.9,29.94,South,186,5.0,12.0,81,0.00,,,0.00,VWS V14.01,2013-02-23 15:28:00,
2013-02-23 10:36:00,72.9,66.7,29.94,SW,231,3.0,12.0,81,0.00,,,0.00,VWS V14.01,2013-02-23 15:36:00,
2013-02-23 10:42:00,73.5,67.0,29.94,SW,226,8.0,13.0,80,0.00,,,0.00,VWS V14.01,2013-02-23 15:42:00,
2013-02-23 10:48:00,74.0,66.7,29.94,WSW,245,5.0,13.0,78,0.00,,,0.00,VWS V14.01,2013-02-23 15:48:00,
2013-02-23 10:53:00,74.1,66.8,29.94,SW,220,6.0,13.0,78,0.00,,,0.00,VWS V14.01,2013-02-23 15:53:00,
2013-02-23 10:58:00,74.2,66.9,29.94,SW,215,8.0,15.0,78,0.00,,,0.00,VWS V14.01,2013-02-23 15:58:00,
2013-02-23 11:06:00,74.5,66.8,29.94,SSW,204,5.0,14.0,77,0.00,,,0.00,VWS V14.01,2013-02-23 16:06:00,
2013-02-23 11:12:00,74.7,66.6,29.94,SSW,208,7.0,8.0,76,0.00,,,0.00,VWS V14.01,2013-02-23 16:12:00,
2013-02-23 11:18:00,74.6,66.5,29.94,SSW,201,5.0,15.0,76,0.00,,,0.00,VWS V14.01,2013-02-23 16:18:00,
2013-02-23 11:23:00,74.8,66.7,29.94,SW,231,7.0,13.0,76,0.00,,,0.00,VWS V14.01,2013-02-23 16:23:00,
2013-02-23 11:28:00,75.2,66.7,29.93,SW,220,6.0,11.0,75,0.00,,,0.00,VWS V14.01,2013-02-23 16:28:00,
2013-02-23 11:33:00,75.5,66.6,29.93,SSW,207,8.0,15.0,74,0.00,,,0.00,VWS V14.01,2013-02-23 16:33:00,
2013-02-23 11:38:00,75.7,66.8,29.93,WSW,250,10.0,11.0,74,0.00,,,0.00,VWS V14.01,2013-02-23 16:38:00,
2013-02-23 11:43:00,76.0,66.7,29.93,SW,219,8.0,15.0,73,0.00,,,0.00,VWS V14.01,2013-02-23 16:43:00,
2013-02-23 11:48:00,76.3,66.6,29.92,South,191,6.0,16.0,72,0.00,,,0.00,VWS V14.01,2013-02-23 16:48:00,
2013-02-23 11:53:00,76.3,67.0,29.92,SSW,196,7.0,14.0,73,0.00,,,0.00,VWS V14.01,2013-02-23 16:53:00,
2013-02-23 11:58:00,76.4,67.1,29.92,SW,221,7.0,10.0,73,0.00,,,0.00,VWS V14.01,2013-02-23 16:58:00,
2013-02-23 12:03:00,76.7,67.0,29.92,SSW,210,4.0,11.0,72,0.00,,,0.00,VWS V14.01,2013-02-23 17:03:00,
2013-02-23 12:08:00,76.9,67.2,29.92,SSW,202,5.0,15.0,72,0.00,,,0.00,VWS V14.01,2013-02-23 17:08:00,
2013-02-23 12:13:00,76.8,67.1,29.92,SSW,203,2.0,12.0,72,0.00,,,0.00,VWS V14.01,2013-02-23 17:13:00,
2013-02-23 12:18:00,76.7,67.0,29.92,SSW,196,9.0,11.0,72,0.00,,,0.00,VWS V14.01,2013-02-23 17:18:00,
2013-02-23 12:23:00,77.0,66.9,29.92,SW,222,9.0,14.0,71,0.00,,,0.00,VWS V14.01,2013-02-23 17:23:00,
2013-02-23 12:28:00,77.2,67.1,29.92,SW,231,8.0,11.0,71,0.00,,,0.00,VWS V14.01,2013-02-23 17:28:00,
2013-02-23 12:33:00,77.0,67.3,29.92,SW,231,11.0,12.0,72,0.00,,,0.00,VWS V14.01,2013-02-23 17:33:00,
2013-02-23 12:38:00,77.7,68.0,29.91,SW,226,1.0,11.0,72,0.00,,,0.00,VWS V14.01,2013-02-23 17:38:00,
2013-02-23 12:43:00,77.5,67.8,29.91,SW,214,3.0,9.0,72,0.00,,,0.00,VWS V14.01,2013-02-23 17:43:00,
2013-02-23 12:48:00,77.4,66.9,29.91,SSW,198,7.0,11.0,70,0.00,,,0.00,VWS V14.01,2013-02-23 17:48:00,
2013-02-23 12:53:00,77.9,66.9,29.91,SW,227,9.0,13.0,69,0.00,,,0.00,VWS V14.01,2013-02-23 17:53:00,
2013-02-23 12:58:00,78.1,67.1,29.91,SW,222,8.0,11.0,69,0.00,,,0.00,VWS V14.01,2013-02-23 17:58:00,
2013-02-23 13:03:00,78.2,66.8,29.90,SW,224,8.0,13.0,68,0.00,,,0.00,VWS V14.01,2013-02-23 18:03:00,
2013-02-23 13:08:00,78.4,67.0,29.90,SW,235,3.0,13.0,68,0.00,,,0.00,VWS V14.01,2013-02-23 18:08:00,
2013-02-23 13:13:00,78.7,66.8,29.90,SW,231,10.0,12.0,67,0.00,,,0.00,VWS V14.01,2013-02-23 18:13:00,
2013-02-23 13:18:00,78.5,66.2,29.90,SSW,197,7.0,12.0,66,0.00,,,0.00,VWS V14.01,2013-02-23 18:18:00,
2013-02-23 13:23:00,78.6,65.9,29.90,SW,230,9.0,19.0,65,0.00,,,0.00,VWS V14.01,2013-02-23 18:23:00,
2013-02-23 13:28:00,78.8,65.2,29.90,WSW,243,15.0,16.0,63,0.00,,,0.00,VWS V14.01,2013-02-23 18:28:00,
2013-02-23 13:33:00,78.8,64.7,29.90,SW,221,11.0,15.0,62,0.00,,,0.00,VWS V14.01,2013-02-23 18:33:00,
2013-02-23 13:38:00,78.7,65.1,29.89,SSW,199,9.0,15.0,63,0.00,,,0.00,VWS V14.01,2013-02-23 18:38:00,
2013-02-23 13:43:00,78.5,64.9,29.89,WSW,244,13.0,19.0,63,0.00,,,0.00,VWS V14.01,2013-02-23 18:43:00,
2013-02-23 13:48:00,78.8,64.7,29.89,SSW,206,8.0,19.0,62,0.00,,,0.00,VWS V14.01,2013-02-23 18:48:00,
2013-02-23 13:53:00,78.7,65.5,29.89,SW,218,6.0,15.0,64,0.00,,,0.00,VWS V14.01,2013-02-23 18:53:00,
2013-02-23 13:58:00,78.2,65.0,29.89,South,189,5.0,14.0,64,0.00,,,0.00,VWS V14.01,2013-02-23 18:58:00,
2013-02-23 14:03:00,78.5,65.8,29.89,West,264,7.0,14.0,65,0.00,,,0.00,VWS V14.01,2013-02-23 19:03:00,
2013-02-23 14:08:00,78.2,65.0,29.88,SW,222,10.0,13.0,64,0.00,,,0.00,VWS V14.01,2013-02-23 19:08:00,
2013-02-23 14:13:00,78.2,65.0,29.88,SW,220,5.0,15.0,64,0.00,,,0.00,VWS V14.01,2013-02-23 19:13:00,
2013-02-23 14:18:00,78.5,65.3,29.88,WSW,242,7.0,16.0,64,0.00,,,0.00,VWS V14.01,2013-02-23 19:18:00,
2013-02-23 14:23:00,78.7,65.5,29.87,WSW,251,4.0,11.0,64,0.00,,,0.00,VWS V14.01,2013-02-23 19:23:00,
2013-02-23 14:28:00,78.4,65.2,29.87,SW,225,6.0,15.0,64,0.00,,,0.00,VWS V14.01,2013-02-23 19:28:00,
2013-02-23 14:33:00,78.7,65.5,29.87,SW,221,5.0,15.0,64,0.00,,,0.00,VWS V14.01,2013-02-23 19:33:00,
2013-02-23 14:38:00,78.7,65.5,29.87,SW,229,5.0,11.0,64,0.00,,,0.00,VWS V14.01,2013-02-23 19:38:00,
2013-02-23 14:43:00,79.1,65.4,29.87,WSW,246,6.0,11.0,63,0.00,,,0.00,VWS V14.01,2013-02-23 19:43:00,
2013-02-23 14:48:00,79.3,65.6,29.86,SSW,211,8.0,16.0,63,0.00,,,0.00,VWS V14.01,2013-02-23 19:48:00,
2013-02-23 14:53:00,79.6,65.9,29.86,South,181,4.0,9.0,63,0.00,,,0.00,VWS V14.01,2013-02-23 19:53:00,
2013-02-23 14:58:00,79.8,65.2,29.86,SSW,209,3.0,9.0,61,0.00,,,0.00,VWS V14.01,2013-02-23 19:58:00,
2013-02-23 15:03:00,80.2,65.1,29.86,SW,230,4.0,9.0,60,0.00,,,0.00,VWS V14.01,2013-02-23 20:03:00,
2013-02-23 15:08:00,80.2,65.5,29.86,South,188,0.0,7.0,61,0.00,,,0.00,VWS V14.01,2013-02-23 20:08:00,
2013-02-23 15:13:00,80.3,65.6,29.86,SW,221,5.0,7.0,61,0.00,,,0.00,VWS V14.01,2013-02-23 20:13:00,
2013-02-23 15:18:00,80.3,65.6,29.86,SW,220,3.0,7.0,61,0.00,,,0.00,VWS V14.01,2013-02-23 20:18:00,
2013-02-23 15:23:00,80.5,64.9,29.85,West,272,4.0,14.0,59,0.00,,,0.00,VWS V14.01,2013-02-23 20:23:00,
2013-02-23 15:28:00,80.7,65.1,29.85,SW,226,4.0,11.0,59,0.00,,,0.00,VWS V14.01,2013-02-23 20:28:00,
2013-02-23 15:33:00,80.9,65.2,29.85,SSW,211,6.0,8.0,59,0.00,,,0.00,VWS V14.01,2013-02-23 20:33:00,
2013-02-23 15:38:00,80.5,65.3,29.85,WSW,238,4.0,9.0,60,0.00,,,0.00,VWS V14.01,2013-02-23 20:38:00,
2013-02-23 15:43:00,80.0,65.4,29.84,SW,233,3.0,6.0,61,0.00,,,0.00,VWS V14.01,2013-02-23 20:43:00,
2013-02-23 15:48:00,80.1,65.4,29.83,SW,219,1.0,6.0,61,0.00,,,0.00,VWS V14.01,2013-02-23 20:48:00,
2013-02-23 15:53:00,80.2,65.5,29.84,South,190,8.0,8.0,61,0.00,,,0.00,VWS V14.01,2013-02-23 20:53:00,
2013-02-23 15:58:00,79.9,65.3,29.83,SSW,208,4.0,8.0,61,0.00,,,0.00,VWS V14.01,2013-02-23 20:58:00,
2013-02-23 16:03:00,79.9,64.8,29.83,SW,233,3.0,7.0,60,0.00,,,0.00,VWS V14.01,2013-02-23 21:03:00,
2013-02-23 16:08:00,80.2,65.1,29.83,SSW,199,4.0,7.0,60,0.00,,,0.00,VWS V14.01,2013-02-23 21:08:00,
2013-02-23 16:13:00,80.4,65.3,29.83,SW,227,3.0,9.0,60,0.00,,,0.00,VWS V14.01,2013-02-23 21:13:00,
2013-02-23 16:18:00,80.2,65.1,29.83,SW,218,6.0,7.0,60,0.00,,,0.00,VWS V14.01,2013-02-23 21:18:00,
2013-02-23 16:23:00,79.7,65.1,29.83,WSW,250,3.0,7.0,61,0.00,,,0.00,VWS V14.01,2013-02-23 21:23:00,
2013-02-23 16:28:00,79.2,64.6,29.83,SSW,199,5.0,11.0,61,0.00,,,0.00,VWS V14.01,2013-02-23 21:28:00,
2013-02-23 16:33:00,79.0,64.4,29.83,SW,224,6.0,9.0,61,0.00,,,0.00,VWS V14.01,2013-02-23 21:33:00,
2013-02-23 16:38:00,79.1,65.0,29.83,SW,225,4.0,7.0,62,0.00,,,0.00,VWS V14.01,2013-02-23 21:38:00,
2013-02-23 16:43:00,79.3,65.6,29.83,WSW,241,5.0,10.0,63,0.00,,,0.00,VWS V14.01,2013-02-23 21:43:00,
2013-02-23 16:48:00,79.4,65.7,29.82,SW,218,2.0,8.0,63,0.00,,,0.00,VWS V14.01,2013-02-23 21:48:00,
2013-02-23 16:53:00,79.0,65.3,29.82,SW,215,7.0,10.0,63,0.00,,,0.00,VWS V14.01,2013-02-23 21:53:00,
2013-02-23 16:58:00,78.8,65.2,29.82,SSW,197,5.0,9.0,63,0.00,,,0.00,VWS V14.01,2013-02-23 21:58:00,
2013-02-23 17:03:00,78.3,65.1,29.82,WSW,237,8.0,9.0,64,0.00,,,0.00,VWS V14.01,2013-02-23 22:03:00,
2013-02-23 17:08:00,77.9,65.2,29.83,SSW,211,7.0,9.0,65,0.00,,,0.00,VWS V14.01,2013-02-23 22:08:00,
2013-02-23 17:13:00,77.5,65.3,29.82,SSW,212,4.0,7.0,66,0.00,,,0.00,VWS V14.01,2013-02-23 22:13:00,
2013-02-23 17:18:00,77.4,65.2,29.82,SSW,200,2.0,6.0,66,0.00,,,0.00,VWS V14.01,2013-02-23 22:18:00,
2013-02-23 17:23:00,77.6,65.3,29.83,SSW,210,6.0,7.0,66,0.00,,,0.00,VWS V14.01,2013-02-23 22:23:00,
2013-02-23 17:28:00,77.8,65.5,29.82,SW,214,4.0,8.0,66,0.00,,,0.00,VWS V14.01,2013-02-23 22:28:00,
2013-02-23 17:33:00,78.2,65.5,29.82,WSW,238,3.0,6.0,65,0.00,,,0.00,VWS V14.01,2013-02-23 22:33:00,
2013-02-23 17:38:00,78.2,65.5,29.82,SW,218,4.0,6.0,65,0.00,,,0.00,VWS V14.01,2013-02-23 22:38:00,
2013-02-23 17:43:00,77.9,65.6,29.82,South,179,6.0,7.0,66,0.00,,,0.00,VWS V14.01,2013-02-23 22:43:00,
2013-02-23 17:48:00,77.8,65.5,29.82,South,189,3.0,9.0,66,0.00,,,0.00,VWS V14.01,2013-02-23 22:48:00,
2013-02-23 17:53:00,77.8,66.0,29.82,SW,225,3.0,8.0,67,0.00,,,0.00,VWS V14.01,2013-02-23 22:53:00,
2013-02-23 17:58:00,77.6,65.8,29.83,WSW,245,4.0,8.0,67,0.00,,,0.00,VWS V14.01,2013-02-23 22:58:00,
2013-02-23 18:03:00,77.2,65.8,29.83,SSW,204,6.0,9.0,68,0.00,,,0.00,VWS V14.01,2013-02-23 23:03:00,
2013-02-23 18:08:00,76.8,65.9,29.84,South,178,5.0,9.0,69,0.00,,,0.00,VWS V14.01,2013-02-23 23:08:00,
2013-02-23 18:13:00,77.0,66.1,29.84,SSW,204,12.0,12.0,69,0.00,,,0.00,VWS V14.01,2013-02-23 23:13:00,
2013-02-23 18:18:00,77.1,66.2,29.84,SSW,204,4.0,13.0,69,0.00,,,0.00,VWS V14.01,2013-02-23 23:18:00,
2013-02-23 18:23:00,76.9,66.0,29.84,WSW,252,5.0,12.0,69,0.00,,,0.00,VWS V14.01,2013-02-23 23:23:00,
2013-02-23 18:28:00,76.8,66.3,29.84,SW,218,5.0,12.0,70,0.00,,,0.00,VWS V14.01,2013-02-23 23:28:00,
2013-02-23 18:33:00,76.8,66.3,29.84,SSW,210,9.0,13.0,70,0.00,,,0.00,VWS V14.01,2013-02-23 23:33:00,
2013-02-23 18:38:00,76.7,66.6,29.84,SSW,212,3.0,9.0,71,0.00,,,0.00,VWS V14.01,2013-02-23 23:38:00,
2013-02-23 18:43:00,76.5,66.8,29.85,WSW,237,9.0,9.0,72,0.00,,,0.00,VWS V14.01,2013-02-23 23:43:00,
2013-02-23 18:48:00,76.4,67.1,29.85,WSW,245,1.0,9.0,73,0.00,,,0.00,VWS V14.01,2013-02-23 23:48:00,
2013-02-23 18:53:00,76.4,67.1,29.85,SW,233,6.0,9.0,73,0.00,,,0.00,VWS V14.01,2013-02-23 23:53:00,
2013-02-23 18:58:00,76.3,67.0,29.85,SSW,212,5.0,9.0,73,0.00,,,0.00,VWS V14.01,2013-02-23 23:58:00,
2013-02-23 19:03:00,76.2,67.3,29.85,SSW,203,3.0,7.0,74,0.00,,,0.00,VWS V14.01,2013-02-24 00:03:00,
2013-02-23 19:08:00,76.2,67.3,29.85,SW,229,3.0,7.0,74,0.00,,,0.00,VWS V14.01,2013-02-24 00:08:00,
2013-02-23 19:13:00,76.0,67.1,29.85,SSW,200,1.0,6.0,74,0.00,,,0.00,VWS V14.01,2013-02-24 00:13:00,
2013-02-23 19:18:00,75.7,67.2,29.85,SSW,201,0.0,5.0,75,0.00,,,0.00,VWS V14.01,2013-02-24 00:18:00,
2013-02-23 19:23:00,75.5,67.0,29.85,SW,233,1.0,5.0,75,0.00,,,0.00,VWS V14.01,2013-02-24 00:23:00,
2013-02-23 19:28:00,75.3,66.8,29.86,South,179,1.0,5.0,75,0.00,,,0.00,VWS V14.01,2013-02-24 00:28:00,
2013-02-23 19:33:00,75.3,66.8,29.86,SSW,206,3.0,7.0,75,0.00,,,0.00,VWS V14.01,2013-02-24 00:33:00,
2013-02-23 19:38:00,75.1,67.0,29.86,SW,231,3.0,9.0,76,0.00,,,0.00,VWS V14.01,2013-02-24 00:38:00,
2013-02-23 19:43:00,75.2,67.1,29.86,SW,215,4.0,9.0,76,0.00,,,0.00,VWS V14.01,2013-02-24 00:43:00,
2013-02-23 19:48:00,75.2,67.1,29.86,WSW,245,6.0,8.0,76,0.00,,,0.00,VWS V14.01,2013-02-24 00:48:00,
2013-02-23 19:53:00,75.2,67.1,29.87,SSW,208,6.0,9.0,76,0.00,,,0.00,VWS V14.01,2013-02-24 00:53:00,
2013-02-23 19:58:00,75.2,67.5,29.86,WSW,239,6.0,9.0,77,0.00,,,0.00,VWS V14.01,2013-02-24 00:58:00,
2013-02-23 20:03:00,75.3,67.6,29.86,SW,228,3.0,10.0,77,0.00,,,0.00,VWS V14.01,2013-02-24 01:03:00,
2013-02-23 20:08:00,75.3,67.6,29.86,SW,218,7.0,7.0,77,0.00,,,0.00,VWS V14.01,2013-02-24 01:08:00,
2013-02-23 20:13:00,75.0,67.7,29.87,SW,224,5.0,8.0,78,0.00,,,0.00,VWS V14.01,2013-02-24 01:13:00,
2013-02-23 20:18:00,74.9,67.9,29.87,SSW,204,6.0,11.0,79,0.00,,,0.00,VWS V14.01,2013-02-24 01:18:00,
2013-02-23 20:23:00,74.8,67.9,29.86,SW,227,2.0,8.0,79,0.00,,,0.00,VWS V14.01,2013-02-24 01:23:00,
2013-02-23 20:28:00,74.6,67.7,29.86,WSW,253,5.0,7.0,79,0.00,,,0.00,VWS V14.01,2013-02-24 01:28:00,
2013-02-23 20:33:00,74.6,68.0,29.86,SSW,207,6.0,7.0,80,0.00,,,0.00,VWS V14.01,2013-02-24 01:33:00,
2013-02-23 20:38:00,74.4,67.8,29.86,WSW,240,3.0,7.0,80,0.00,,,0.00,VWS V14.01,2013-02-24 01:38:00,
2013-02-23 20:43:00,74.3,67.7,29.87,SSW,194,1.0,6.0,80,0.00,,,0.00,VWS V14.01,2013-02-24 01:43:00,
2013-02-23 20:48:00,74.2,68.0,29.86,SW,233,3.0,7.0,81,0.00,,,0.00,VWS V14.01,2013-02-24 01:48:00,
2013-02-23 20:53:00,74.0,67.8,29.87,SW,235,4.0,8.0,81,0.00,,,0.00,VWS V14.01,2013-02-24 01:53:00,
2013-02-23 20:58:00,74.0,68.2,29.89,SSE,156,2.0,7.0,82,0.00,,,0.00,VWS V14.01,2013-02-24 01:58:00,
2013-02-23 21:03:00,71.1,63.2,29.90,WSW,254,3.0,13.0,76,0.00,,,0.00,VWS V14.01,2013-02-24 02:03:00,
2013-02-23 21:08:00,68.7,62.6,29.91,West,272,3.0,6.0,81,0.08,,,0.08,VWS V14.01,2013-02-24 02:08:00,
2013-02-23 21:13:00,66.5,61.9,29.92,NE,45,0.0,9.0,85,0.15,,,0.15,VWS V14.01,2013-02-24 02:13:00,
2013-02-23 21:18:00,65.2,61.6,29.92,NNW,329,7.0,7.0,88,0.27,,,0.27,VWS V14.01,2013-02-24 02:18:00,
2013-02-23 21:23:00,64.3,61.3,29.93,NNE,25,3.0,13.0,90,0.35,,,0.35,VWS V14.01,2013-02-24 02:23:00,
2013-02-23 21:28:00,63.9,61.2,29.93,West,278,4.0,7.0,91,0.38,,,0.38,VWS V14.01,2013-02-24 02:28:00,
2013-02-23 21:33:00,63.6,61.2,29.93,North,10,0.0,4.0,92,0.40,,,0.40,VWS V14.01,2013-02-24 02:33:00,
2013-02-23 21:38:00,63.3,60.9,29.93,North,354,0.0,5.0,92,0.42,,,0.42,VWS V14.01,2013-02-24 02:38:00,
2013-02-23 21:43:00,63.1,61.0,29.94,NNE,14,0.0,4.0,93,0.44,,,0.44,VWS V14.01,2013-02-24 02:43:00,
2013-02-23 21:48:00,62.9,60.8,29.93,NE,52,0.0,7.0,93,0.44,,,0.44,VWS V14.01,2013-02-24 02:48:00,
2013-02-23 21:53:00,62.8,61.0,29.92,NE,38,0.0,4.0,94,0.44,,,0.44,VWS V14.01,2013-02-24 02:53:00,
2013-02-23 21:58:00,62.8,61.0,29.93,NNE,18,0.0,1.0,94,0.44,,,0.44,VWS V14.01,2013-02-24 02:58:00,
2013-02-23 22:03:00,62.9,61.2,29.92,NNE,18,0.0,1.0,94,0.44,,,0.44,VWS V14.01,2013-02-24 03:03:00,
2013-02-23 22:08:00,62.9,61.2,29.92,NNE,18,0.0,1.0,94,0.44,,,0.44,VWS V14.01,2013-02-24 03:08:00,
2013-02-23 22:13:00,62.9,61.2,29.92,NNE,18,0.0,1.0,94,0.36,,,0.44,VWS V14.01,2013-02-24 03:13:00,
2013-02-23 22:18:00,62.8,61.0,29.92,NNW,339,0.0,3.0,94,0.30,,,0.45,VWS V14.01,2013-02-24 03:18:00,
2013-02-23 22:23:00,62.9,61.2,29.92,East,82,0.0,1.0,94,0.18,,,0.45,VWS V14.01,2013-02-24 03:23:00,
2013-02-23 22:28:00,62.9,61.2,29.91,East,83,0.0,1.0,94,0.10,,,0.45,VWS V14.01,2013-02-24 03:28:00,
2013-02-23 22:33:00,62.9,61.2,29.92,East,83,0.0,1.0,94,0.08,,,0.46,VWS V14.01,2013-02-24 03:33:00,
2013-02-23 22:38:00,62.9,61.2,29.91,East,82,0.0,1.0,94,0.06,,,0.46,VWS V14.01,2013-02-24 03:38:00,
2013-02-23 22:43:00,62.9,61.5,29.92,East,83,0.0,0.0,95,0.04,,,0.46,VWS V14.01,2013-02-24 03:43:00,
2013-02-23 22:48:00,63.0,61.5,29.91,East,83,0.0,0.0,95,0.03,,,0.47,VWS V14.01,2013-02-24 03:48:00,
2013-02-23 22:53:00,63.1,61.7,29.91,East,83,0.0,0.0,95,0.03,,,0.47,VWS V14.01,2013-02-24 03:53:00,
2013-02-23 22:58:00,63.2,61.8,29.91,East,83,0.0,0.0,95,0.04,,,0.48,VWS V14.01,2013-02-24 03:58:00,
2013-02-23 23:03:00,63.2,61.8,29.91,East,82,0.0,0.0,95,0.04,,,0.48,VWS V14.01,2013-02-24 04:03:00,
2013-02-23 23:08:00,63.2,61.8,29.90,East,83,0.0,1.0,95,0.04,,,0.48,VWS V14.01,2013-02-24 04:08:00,
2013-02-23 23:13:00,63.2,61.8,29.90,East,83,0.0,0.0,95,0.04,,,0.48,VWS V14.01,2013-02-24 04:13:00,
2013-02-23 23:18:00,63.1,61.7,29.90,East,83,0.0,0.0,95,0.04,,,0.48,VWS V14.01,2013-02-24 04:18:00,
2013-02-23 23:23:00,63.1,61.7,29.89,East,82,0.0,0.0,95,0.03,,,0.48,VWS V14.01,2013-02-24 04:23:00,
2013-02-23 23:28:00,63.0,61.8,29.90,East,83,0.0,0.0,96,0.03,,,0.48,VWS V14.01,2013-02-24 04:28:00,
2013-02-23 23:33:00,63.0,61.8,29.90,East,83,0.0,0.0,96,0.03,,,0.48,VWS V14.01,2013-02-24 04:33:00,
2013-02-23 23:38:00,63.0,61.8,29.90,East,83,0.0,0.0,96,0.02,,,0.48,VWS V14.01,2013-02-24 04:38:00,
2013-02-23 23:43:00,63.0,61.8,29.90,East,83,0.0,0.0,96,0.02,,,0.48,VWS V14.01,2013-02-24 04:43:00,
2013-02-23 23:48:00,63.0,61.8,29.90,East,82,0.0,0.0,96,0.02,,,0.48,VWS V14.01,2013-02-24 04:48:00,
2013-02-23 23:53:00,63.0,61.8,29.90,East,83,0.0,0.0,96,0.01,,,0.48,VWS V14.01,2013-02-24 04:53:00,
2013-02-23 23:58:00,63.1,61.9,29.90,East,83,0.0,0.0,96,0.02,,,0.00,VWS V14.01,2013-02-24 04:58:00,